Ambrogiana, Italy

6:51 AM CEST on April 21, 2018 (GMT +0200)
Ambrogiana

Weather History for 16170 - October, 2013

Change the Weather History Date:

Friday, October 25, 2013

  Actual Average Record
Temperature  
Mean Temperature 69 °F -  
Max Temperature 78 °F 61 °F - ()
Min Temperature 60 °F 43 °F - ()
Cooling Degree Days 4    
Growing Degree Days 19 (Base 50)    
Moisture  
Dew Point 63 °F    
Average Humidity 84    
Maximum Humidity 100    
Minimum Humidity 54    
Precipitation  
Precipitation 0.00 in 0.14 in - ()
Sea Level Pressure  
Sea Level Pressure 30.17 in    
Wind  
Wind Speed 2 mph ()    
Max Wind Speed 6 mph    
Max Gust Speed -    
Visibility 6.0 miles    
Events Fog    
T = Trace of Precipitation, MM = Missing Value Source: Averaged Metar Reports

Daily Weather History Graph

Daily Weather History Graph

Search for Another Location

Airport or City:

Astronomy

Oct. 25, 2013 Rise Set
Actual Time 7:42 AM CEST 6:15 PM CEST
Civil Twilight 7:12 AM CEST 6:45 PM CEST
Nautical Twilight 6:38 AM CEST 7:18 PM CEST
Astronomical Twilight 6:05 AM CEST 7:52 PM CEST
Moon 11:16 PM CEST (10/25) 1:15 PM CEST (10/25)
Length of Visible Light 11h 32m
Length of Day
10h 33m
Waning Gibbous, 65% of the Moon is Illuminated
Oct 25
Waning Gibbous
Oct 27
Last Quarter
Nov 3
New
Nov 10
First Quarter
Nov 17
Full

Hourly Weather History & Observations

Time (CEST) Temp. Dew Point Humidity Pressure Visibility Wind Dir Wind Speed Gust Speed Precip Events Conditions
12:20 AM 66.2 °F 64.4 °F 94% 30.18 in 6.2 mi SSW 3.5 mph - N/A   Mostly Cloudy
12:50 AM 66.2 °F 64.4 °F 94% 30.18 in 6.2 mi Calm Calm - N/A   Mostly Cloudy
1:20 AM 66.2 °F 64.4 °F 94% 30.18 in 6.2 mi Variable 1.2 mph - N/A   Mostly Cloudy
1:50 AM 66.2 °F 64.4 °F 94% 30.18 in 6.2 mi West 2.3 mph - N/A   Mostly Cloudy
2:20 AM 66.2 °F 64.4 °F 94% 30.18 in 6.2 mi South 2.3 mph - N/A   Mostly Cloudy
2:50 AM 64.4 °F 62.6 °F 94% 30.15 in 6.2 mi Calm Calm - N/A   Mostly Cloudy
3:20 AM 64.4 °F 64.4 °F 100% 30.15 in 6.2 mi Variable 2.3 mph - N/A   Mostly Cloudy
3:50 AM 64.4 °F 64.4 °F 100% 30.15 in 6.2 mi Calm Calm - N/A   Mostly Cloudy
4:20 AM 64.4 °F 64.4 °F 100% 30.15 in 6.2 mi West 2.3 mph - N/A   Mostly Cloudy
4:50 AM 64.4 °F 64.4 °F 100% 30.15 in 6.2 mi Calm Calm - N/A   Mostly Cloudy
5:20 AM 64.4 °F 62.6 °F 94% 30.15 in 6.2 mi East 3.5 mph - N/A   Scattered Clouds
5:50 AM 62.6 °F 62.6 °F 100% 30.15 in 5.0 mi SSE 4.6 mph - N/A   Scattered Clouds
6:20 AM 62.6 °F 62.6 °F 100% 30.15 in 5.0 mi Variable 2.3 mph - N/A   Scattered Clouds
6:50 AM 62.6 °F 60.8 °F 94% 30.15 in 5.0 mi Variable 2.3 mph - N/A   Partly Cloudy
7:20 AM 62.6 °F 62.6 °F 100% 30.15 in 4.3 mi Variable 1.2 mph - N/A Fog Patches of Fog
7:50 AM 60.8 °F 60.8 °F 100% 30.18 in 5.6 mi Variable 2.3 mph - N/A Fog Shallow Fog
8:20 AM 62.6 °F 60.8 °F 94% 30.18 in 5.6 mi Calm Calm - N/A Fog Fog
8:50 AM 62.6 °F 62.6 °F 100% 30.18 in 5.6 mi Calm Calm - N/A   Partly Cloudy
9:20 AM 64.4 °F 62.6 °F 94% 30.18 in 5.0 mi Calm Calm - N/A   Partly Cloudy
9:50 AM 66.2 °F 62.6 °F 88% 30.21 in 5.0 mi SW 3.5 mph - N/A   Partly Cloudy
10:20 AM 68.0 °F 62.6 °F 83% 30.21 in 5.6 mi Variable 1.2 mph - N/A   Partly Cloudy
10:50 AM 69.8 °F 64.4 °F 83% 30.21 in 6.2 mi Variable 2.3 mph - N/A   Partly Cloudy
11:20 AM 69.8 °F 62.6 °F 78% 30.21 in 6.2 mi Variable 2.3 mph - N/A   Partly Cloudy
11:50 AM 71.6 °F 64.4 °F 78% 30.21 in 6.2 mi West 3.5 mph - N/A   Partly Cloudy
12:20 PM 73.4 °F 62.6 °F 69% 30.18 in 6.2 mi Variable 2.3 mph - N/A   Partly Cloudy
12:50 PM 75.2 °F 62.6 °F 65% 30.18 in 6.2 mi Variable 1.2 mph - N/A   Partly Cloudy
1:20 PM 75.2 °F 62.6 °F 65% 30.18 in 6.2 mi North 3.5 mph - N/A   Partly Cloudy
1:50 PM 75.2 °F 62.6 °F 65% 30.18 in 6.2 mi Variable 2.3 mph - N/A   Partly Cloudy
2:20 PM 75.2 °F 62.6 °F 65% 30.15 in 6.2 mi Variable 2.3 mph - N/A   Partly Cloudy
2:50 PM 77.0 °F 62.6 °F 61% 30.15 in 6.2 mi Variable 2.3 mph - N/A   Partly Cloudy
3:20 PM 77.0 °F 60.8 °F 57% 30.15 in 6.2 mi Variable 2.3 mph - N/A   Partly Cloudy
3:50 PM 77.0 °F 62.6 °F 61% 30.15 in 6.2 mi Variable 2.3 mph - N/A   Partly Cloudy
4:20 PM 78.8 °F 60.8 °F 54% 30.15 in 6.2 mi Calm Calm - N/A   Partly Cloudy
4:50 PM 78.8 °F 62.6 °F 57% 30.12 in 6.2 mi Variable 1.2 mph - N/A   Partly Cloudy
5:20 PM 75.2 °F 62.6 °F 65% 30.12 in 6.2 mi Variable 1.2 mph - N/A   Partly Cloudy
5:50 PM 73.4 °F 64.4 °F 73% 30.15 in 6.2 mi West 1.2 mph - N/A   Scattered Clouds
6:20 PM 71.6 °F 64.4 °F 78% 30.15 in 6.2 mi Variable 2.3 mph - N/A   Scattered Clouds
6:50 PM 69.8 °F 64.4 °F 83% 30.15 in 6.2 mi Variable 2.3 mph - N/A   Scattered Clouds
7:20 PM 68.0 °F 62.6 °F 83% 30.15 in 6.2 mi Variable 1.2 mph - N/A   Scattered Clouds
7:50 PM 68.0 °F 62.6 °F 83% 30.15 in 6.2 mi East 5.8 mph - N/A   Scattered Clouds
8:20 PM 68.0 °F 62.6 °F 83% 30.15 in 6.2 mi East 3.5 mph - N/A   Scattered Clouds
8:50 PM 68.0 °F 62.6 °F 83% 30.15 in 6.2 mi East 2.3 mph - N/A   Partly Cloudy
9:50 PM 64.4 °F 60.8 °F 88% 30.18 in 6.2 mi Calm Calm - N/A   Scattered Clouds
10:20 PM 64.4 °F 60.8 °F 88% 30.18 in 6.2 mi Variable 2.3 mph - N/A   Partly Cloudy
10:50 PM 64.4 °F 62.6 °F 94% 30.18 in 6.2 mi East 2.3 mph - N/A   Partly Cloudy
11:20 PM 64.4 °F 62.6 °F 94% 30.18 in 6.2 mi Calm Calm - N/A   Partly Cloudy
11:50 PM 64.4 °F 62.6 °F 94% 30.18 in 6.2 mi Calm Calm - N/A   Scattered Clouds